Year,Month,Day,Hour,Minute,Value (Times are PST for temperature in C)
2015,08,06,00,00,15.30
2015,08,06,00,01,15.30
2015,08,06,00,02,15.30
2015,08,06,00,03,15.30
2015,08,06,00,04,15.30
2015,08,06,00,05,15.30
2015,08,06,00,06,15.30
2015,08,06,00,07,15.30
2015,08,06,00,08,15.30
2015,08,06,00,09,15.30
2015,08,06,00,10,15.30
2015,08,06,00,11,15.30
2015,08,06,00,12,15.30
2015,08,06,00,13,15.20
2015,08,06,00,14,15.20
2015,08,06,00,15,15.20
2015,08,06,00,16,15.20
2015,08,06,00,17,15.20
2015,08,06,00,18,15.20
2015,08,06,00,19,15.20
2015,08,06,00,20,15.20
2015,08,06,00,21,15.20
2015,08,06,00,22,15.20
2015,08,06,00,23,15.20
2015,08,06,00,24,15.20
2015,08,06,00,25,15.20
2015,08,06,00,26,15.20
2015,08,06,00,27,15.10
2015,08,06,00,28,15.10
2015,08,06,00,29,15.10
2015,08,06,00,30,15.10
2015,08,06,00,31,15.10
2015,08,06,00,32,15.10
2015,08,06,00,33,15.00
2015,08,06,00,34,15.00
2015,08,06,00,35,15.00
2015,08,06,00,36,15.00
2015,08,06,00,37,15.00
2015,08,06,00,38,15.00
2015,08,06,00,39,15.00
2015,08,06,00,40,15.00
2015,08,06,00,41,15.00
2015,08,06,00,42,15.00
2015,08,06,00,43,14.90
2015,08,06,00,44,14.90
2015,08,06,00,45,14.90
2015,08,06,00,46,14.90
2015,08,06,00,47,14.90
2015,08,06,00,48,14.90
2015,08,06,00,49,14.90
2015,08,06,00,50,14.90
2015,08,06,00,51,14.90
2015,08,06,00,52,14.80
2015,08,06,00,53,14.80
2015,08,06,00,54,14.80
2015,08,06,00,55,14.70
2015,08,06,00,56,14.70
2015,08,06,00,57,14.60
2015,08,06,00,58,14.60
2015,08,06,00,59,14.50
2015,08,06,01,00,14.50
2015,08,06,01,01,14.40
2015,08,06,01,02,14.30
2015,08,06,01,03,14.30
2015,08,06,01,04,14.20
2015,08,06,01,05,14.20
2015,08,06,01,06,14.10
2015,08,06,01,07,14.10
2015,08,06,01,08,14.00
2015,08,06,01,09,14.00
2015,08,06,01,10,13.90
2015,08,06,01,11,13.80
2015,08,06,01,12,13.80
2015,08,06,01,13,13.70
2015,08,06,01,14,13.70
2015,08,06,01,15,13.70
2015,08,06,01,16,13.60
2015,08,06,01,17,13.60
2015,08,06,01,18,13.60
2015,08,06,01,19,13.60
2015,08,06,01,20,13.60
2015,08,06,01,21,13.50
2015,08,06,01,22,13.50
2015,08,06,01,23,13.50
2015,08,06,01,24,13.50
2015,08,06,01,25,13.50
2015,08,06,01,26,13.40
2015,08,06,01,27,13.40
2015,08,06,01,28,13.40
2015,08,06,01,29,13.40
2015,08,06,01,30,13.40
2015,08,06,01,31,13.40
2015,08,06,01,32,13.40
2015,08,06,01,33,13.50
2015,08,06,01,34,13.50
2015,08,06,01,35,13.50
2015,08,06,01,36,13.60
2015,08,06,01,37,13.60
2015,08,06,01,38,13.60
2015,08,06,01,39,13.60
2015,08,06,01,40,13.60
2015,08,06,01,41,13.60
2015,08,06,01,42,13.60
2015,08,06,01,43,13.60
2015,08,06,01,44,13.60
2015,08,06,01,45,13.60
2015,08,06,01,46,13.60
2015,08,06,01,47,13.60
2015,08,06,01,48,13.60
2015,08,06,01,49,13.50
2015,08,06,01,50,13.50
2015,08,06,01,51,13.50
2015,08,06,01,52,13.40
2015,08,06,01,53,13.40
2015,08,06,01,54,13.30
2015,08,06,01,55,13.30
2015,08,06,01,56,13.20
2015,08,06,01,57,13.20
2015,08,06,01,58,13.10
2015,08,06,01,59,13.10
2015,08,06,02,00,13.00
2015,08,06,02,01,13.00
2015,08,06,02,02,12.90
2015,08,06,02,03,12.90
2015,08,06,02,04,12.90
2015,08,06,02,05,12.90
2015,08,06,02,06,12.90
2015,08,06,02,07,12.90
2015,08,06,02,08,12.90
2015,08,06,02,09,12.90
2015,08,06,02,10,13.00
2015,08,06,02,11,13.00
2015,08,06,02,12,13.10
2015,08,06,02,13,13.10
2015,08,06,02,14,13.10
2015,08,06,02,15,13.10
2015,08,06,02,16,13.10
2015,08,06,02,17,13.10
2015,08,06,02,18,13.10
2015,08,06,02,19,13.10
2015,08,06,02,20,13.10
2015,08,06,02,21,13.00
2015,08,06,02,22,13.00
2015,08,06,02,23,13.00
2015,08,06,02,24,12.90
2015,08,06,02,25,12.90
2015,08,06,02,26,12.90
2015,08,06,02,27,12.80
2015,08,06,02,28,12.80
2015,08,06,02,29,12.70
2015,08,06,02,30,12.70
2015,08,06,02,31,12.70
2015,08,06,02,32,12.70
2015,08,06,02,33,12.80
2015,08,06,02,34,12.80
2015,08,06,02,35,12.70
2015,08,06,02,36,12.70
2015,08,06,02,37,12.70
2015,08,06,02,38,12.70
2015,08,06,02,39,12.70
2015,08,06,02,40,12.70
2015,08,06,02,41,12.70
2015,08,06,02,42,12.70
2015,08,06,02,43,12.70
2015,08,06,02,44,12.60
2015,08,06,02,45,12.60
2015,08,06,02,46,12.60
2015,08,06,02,47,12.60
2015,08,06,02,48,12.60
2015,08,06,02,49,12.60
2015,08,06,02,50,12.60
2015,08,06,02,51,12.60
2015,08,06,02,52,12.60
2015,08,06,02,53,12.60
2015,08,06,02,54,12.60
2015,08,06,02,55,12.60
2015,08,06,02,56,12.50
2015,08,06,02,57,12.40
2015,08,06,02,58,12.40
2015,08,06,02,59,12.40
2015,08,06,03,00,12.40
2015,08,06,03,01,12.30
2015,08,06,03,02,12.30
2015,08,06,03,03,12.30
2015,08,06,03,04,12.30
2015,08,06,03,05,12.30
2015,08,06,03,06,12.30
2015,08,06,03,07,12.30
2015,08,06,03,08,12.30
2015,08,06,03,09,12.30
2015,08,06,03,10,12.30
2015,08,06,03,11,12.30
2015,08,06,03,12,12.30
2015,08,06,03,13,12.30
2015,08,06,03,14,12.20
2015,08,06,03,15,12.20
2015,08,06,03,16,12.20
2015,08,06,03,17,12.10
2015,08,06,03,18,12.10
2015,08,06,03,19,12.10
2015,08,06,03,20,12.00
2015,08,06,03,21,12.00
2015,08,06,03,22,11.90
2015,08,06,03,23,11.90
2015,08,06,03,24,11.90
2015,08,06,03,25,11.90
2015,08,06,03,26,11.80
2015,08,06,03,27,11.80
2015,08,06,03,28,11.80
2015,08,06,03,29,11.80
2015,08,06,03,30,11.80
2015,08,06,03,31,11.80
2015,08,06,03,32,11.90
2015,08,06,03,33,11.90
2015,08,06,03,34,11.90
2015,08,06,03,35,11.90
2015,08,06,03,36,11.90
2015,08,06,03,37,11.90
2015,08,06,03,38,11.90
2015,08,06,03,39,11.90
2015,08,06,03,40,11.90
2015,08,06,03,41,11.90
2015,08,06,03,42,11.90
2015,08,06,03,43,11.90
2015,08,06,03,44,11.80
2015,08,06,03,45,11.80
2015,08,06,03,46,11.80
2015,08,06,03,47,11.80
2015,08,06,03,48,11.80
2015,08,06,03,49,11.80
2015,08,06,03,50,11.80
2015,08,06,03,51,11.70
2015,08,06,03,52,11.70
2015,08,06,03,53,11.70
2015,08,06,03,54,11.70
2015,08,06,03,55,11.70
2015,08,06,03,56,11.70
2015,08,06,03,57,11.60
2015,08,06,03,58,11.60
2015,08,06,03,59,11.60
2015,08,06,04,00,11.60
2015,08,06,04,01,11.60
2015,08,06,04,02,11.60
2015,08,06,04,03,11.50
2015,08,06,04,04,11.50
2015,08,06,04,05,11.50
2015,08,06,04,06,11.40
2015,08,06,04,07,11.40
2015,08,06,04,08,11.50
2015,08,06,04,09,11.60
2015,08,06,04,10,11.70
2015,08,06,04,11,11.70
2015,08,06,04,12,11.80
2015,08,06,04,13,11.80
2015,08,06,04,14,11.80
2015,08,06,04,15,11.80
2015,08,06,04,16,11.80
2015,08,06,04,17,11.80
2015,08,06,04,18,11.80
2015,08,06,04,19,11.70
2015,08,06,04,20,11.70
2015,08,06,04,21,11.70
2015,08,06,04,22,11.70
2015,08,06,04,23,11.60
2015,08,06,04,24,11.60
2015,08,06,04,25,11.60
2015,08,06,04,26,11.60
2015,08,06,04,27,11.60
2015,08,06,04,28,11.60
2015,08,06,04,29,11.60
2015,08,06,04,30,11.60
2015,08,06,04,31,11.60
2015,08,06,04,32,11.60
2015,08,06,04,33,11.60
2015,08,06,04,34,11.60
2015,08,06,04,35,11.60
2015,08,06,04,36,11.60
2015,08,06,04,37,11.60
2015,08,06,04,38,11.60
2015,08,06,04,39,11.70
2015,08,06,04,40,11.80
2015,08,06,04,41,11.90
2015,08,06,04,42,12.00
2015,08,06,04,43,12.00
2015,08,06,04,44,12.10
2015,08,06,04,45,12.10
2015,08,06,04,46,12.10
2015,08,06,04,47,12.20
2015,08,06,04,48,12.20
2015,08,06,04,49,12.20
2015,08,06,04,50,12.20
2015,08,06,04,51,12.20
2015,08,06,04,52,12.20
2015,08,06,04,53,12.20
2015,08,06,04,54,12.20
2015,08,06,04,55,12.20
2015,08,06,04,56,12.20
2015,08,06,04,57,12.20
2015,08,06,04,58,12.20
2015,08,06,04,59,12.20
2015,08,06,05,00,12.20
2015,08,06,05,01,12.20
2015,08,06,05,02,12.10
2015,08,06,05,03,12.10
2015,08,06,05,04,12.10
2015,08,06,05,05,12.10
2015,08,06,05,06,12.20
2015,08,06,05,07,12.20
2015,08,06,05,08,12.20
2015,08,06,05,09,12.30
2015,08,06,05,10,12.30
2015,08,06,05,11,12.30
2015,08,06,05,12,12.40
2015,08,06,05,13,12.50
2015,08,06,05,14,12.50
2015,08,06,05,15,12.50
2015,08,06,05,16,12.50
2015,08,06,05,17,12.50
2015,08,06,05,18,12.50
2015,08,06,05,19,12.40
2015,08,06,05,20,12.40
2015,08,06,05,21,12.40
2015,08,06,05,22,12.40
2015,08,06,05,23,12.40
2015,08,06,05,24,12.40
2015,08,06,05,25,12.30
2015,08,06,05,26,12.30
2015,08,06,05,27,12.30
2015,08,06,05,28,12.30
2015,08,06,05,29,12.30
2015,08,06,05,30,12.30
2015,08,06,05,31,12.30
2015,08,06,05,32,12.30
2015,08,06,05,33,12.20
2015,08,06,05,34,12.20
2015,08,06,05,35,12.20
2015,08,06,05,36,12.10
2015,08,06,05,37,12.10
2015,08,06,05,38,12.00
2015,08,06,05,39,12.00
2015,08,06,05,40,11.90
2015,08,06,05,41,11.90
2015,08,06,05,42,11.90
2015,08,06,05,43,11.90
2015,08,06,05,44,11.80
2015,08,06,05,45,11.80
2015,08,06,05,46,11.80
2015,08,06,05,47,11.80
2015,08,06,05,48,11.70
2015,08,06,05,49,11.70
2015,08,06,05,50,11.60
2015,08,06,05,51,11.60
2015,08,06,05,52,11.50
2015,08,06,05,53,11.50
2015,08,06,05,54,11.50
2015,08,06,05,55,11.40
2015,08,06,05,56,11.40
2015,08,06,05,57,11.40
2015,08,06,05,58,11.30
2015,08,06,05,59,11.30
2015,08,06,06,00,11.30
2015,08,06,06,01,11.20
2015,08,06,06,02,11.20
2015,08,06,06,03,11.20
2015,08,06,06,04,11.20
2015,08,06,06,05,11.20
2015,08,06,06,06,11.20
2015,08,06,06,07,11.20
2015,08,06,06,08,11.10
2015,08,06,06,09,11.10
2015,08,06,06,10,11.00
2015,08,06,06,11,11.00
2015,08,06,06,12,10.90
2015,08,06,06,13,10.90
2015,08,06,06,14,10.90
2015,08,06,06,15,10.90
2015,08,06,06,16,10.90
2015,08,06,06,17,10.90
2015,08,06,06,18,10.90
2015,08,06,06,19,10.90
2015,08,06,06,20,10.90
2015,08,06,06,21,10.90
2015,08,06,06,22,10.90
2015,08,06,06,23,10.90
2015,08,06,06,24,10.90
2015,08,06,06,25,10.90
2015,08,06,06,26,10.90
2015,08,06,06,27,10.90
2015,08,06,06,28,10.90
2015,08,06,06,29,10.90
2015,08,06,06,30,10.90
2015,08,06,06,31,10.90
2015,08,06,06,32,10.80
2015,08,06,06,33,10.90
2015,08,06,06,34,10.90
2015,08,06,06,35,10.90
2015,08,06,06,36,11.00
2015,08,06,06,37,11.00
2015,08,06,06,38,11.00
2015,08,06,06,39,11.10
2015,08,06,06,40,11.10
2015,08,06,06,41,11.20
2015,08,06,06,42,11.20
2015,08,06,06,43,11.20
2015,08,06,06,44,11.20
2015,08,06,06,45,11.30
2015,08,06,06,46,11.30
2015,08,06,06,47,11.30
2015,08,06,06,48,11.30
2015,08,06,06,49,11.40
2015,08,06,06,50,11.40
2015,08,06,06,51,11.40
2015,08,06,06,52,11.40
2015,08,06,06,53,11.40
2015,08,06,06,54,11.50
2015,08,06,06,55,11.50
2015,08,06,06,56,11.50
2015,08,06,06,57,11.40
2015,08,06,06,58,11.40
2015,08,06,06,59,11.40
2015,08,06,07,00,11.40
2015,08,06,07,01,11.50
2015,08,06,07,02,11.50
2015,08,06,07,03,11.60
2015,08,06,07,04,11.60
2015,08,06,07,05,11.70
2015,08,06,07,06,11.80
2015,08,06,07,07,11.80
2015,08,06,07,08,11.90
2015,08,06,07,09,11.90
2015,08,06,07,10,11.90
2015,08,06,07,11,12.00
2015,08,06,07,12,12.00
2015,08,06,07,13,12.10
2015,08,06,07,14,12.20
2015,08,06,07,15,12.30
2015,08,06,07,16,12.40
2015,08,06,07,17,12.40
2015,08,06,07,18,12.50
2015,08,06,07,19,12.50
2015,08,06,07,20,12.60
2015,08,06,07,21,12.70
2015,08,06,07,22,12.80
2015,08,06,07,23,12.90
2015,08,06,07,24,13.00
2015,08,06,07,25,13.10
2015,08,06,07,26,13.20
2015,08,06,07,27,13.30
2015,08,06,07,28,13.40
2015,08,06,07,29,13.50
2015,08,06,07,30,13.60
2015,08,06,07,31,13.70
2015,08,06,07,32,13.80
2015,08,06,07,33,13.80
2015,08,06,07,34,13.90
2015,08,06,07,35,13.80
2015,08,06,07,36,13.80
2015,08,06,07,37,13.70
2015,08,06,07,38,13.70
2015,08,06,07,39,13.70
2015,08,06,07,40,13.60
2015,08,06,07,41,13.60
2015,08,06,07,42,13.60
2015,08,06,07,43,13.60
2015,08,06,07,44,13.70
2015,08,06,07,45,13.70
2015,08,06,07,46,13.80
2015,08,06,07,47,13.90
2015,08,06,07,48,14.10
2015,08,06,07,49,14.20
2015,08,06,07,50,14.30
2015,08,06,07,51,14.40
2015,08,06,07,52,14.50
2015,08,06,07,53,14.60
2015,08,06,07,54,14.70
2015,08,06,07,55,14.80
2015,08,06,07,56,14.90
2015,08,06,07,57,14.90
2015,08,06,07,58,15.00
2015,08,06,07,59,15.00
2015,08,06,08,00,15.10
2015,08,06,08,01,15.20
2015,08,06,08,02,15.20
2015,08,06,08,03,15.30
2015,08,06,08,04,15.30
2015,08,06,08,05,15.30
2015,08,06,08,06,15.40
2015,08,06,08,07,15.40
2015,08,06,08,08,15.50
2015,08,06,08,09,15.50
2015,08,06,08,10,15.60
2015,08,06,08,11,15.70
2015,08,06,08,12,15.70
2015,08,06,08,13,15.80
2015,08,06,08,14,15.90
2015,08,06,08,15,16.00
2015,08,06,08,16,16.00
2015,08,06,08,17,16.10
2015,08,06,08,18,16.10
2015,08,06,08,19,16.20
2015,08,06,08,20,16.20
2015,08,06,08,21,16.20
2015,08,06,08,22,16.20
2015,08,06,08,23,16.20
2015,08,06,08,24,16.20
2015,08,06,08,25,16.30
2015,08,06,08,26,16.30
2015,08,06,08,27,16.30
2015,08,06,08,28,16.40
2015,08,06,08,29,16.40
2015,08,06,08,30,16.40
2015,08,06,08,31,16.50
2015,08,06,08,32,16.60
2015,08,06,08,33,16.60
2015,08,06,08,34,16.70
2015,08,06,08,35,16.80
2015,08,06,08,36,16.80
2015,08,06,08,37,16.90
2015,08,06,08,38,16.90
2015,08,06,08,39,17.00
2015,08,06,08,40,17.00
2015,08,06,08,41,17.00
2015,08,06,08,42,17.00
2015,08,06,08,43,16.90
2015,08,06,08,44,16.90
2015,08,06,08,45,16.90
2015,08,06,08,46,16.90
2015,08,06,08,47,16.80
2015,08,06,08,48,16.80
2015,08,06,08,49,16.80
2015,08,06,08,50,16.80
2015,08,06,08,51,16.80
2015,08,06,08,52,16.70
2015,08,06,08,53,16.70
2015,08,06,08,54,16.70
2015,08,06,08,55,16.80
2015,08,06,08,56,16.80
2015,08,06,08,57,16.80
2015,08,06,08,58,16.90
2015,08,06,08,59,16.90
2015,08,06,09,00,16.90
2015,08,06,09,01,16.90
2015,08,06,09,02,16.90
2015,08,06,09,03,16.90
2015,08,06,09,04,16.90
2015,08,06,09,05,17.00
2015,08,06,09,06,17.00
2015,08,06,09,07,17.00
2015,08,06,09,08,17.10
2015,08,06,09,09,17.10
2015,08,06,09,10,17.10
2015,08,06,09,11,17.00
2015,08,06,09,12,17.00
2015,08,06,09,13,17.00
2015,08,06,09,14,17.00
2015,08,06,09,15,17.00
2015,08,06,09,16,17.00
2015,08,06,09,17,17.10
2015,08,06,09,18,17.10
2015,08,06,09,19,17.10
2015,08,06,09,20,17.10
2015,08,06,09,21,17.10
2015,08,06,09,22,17.10
2015,08,06,09,23,17.10
2015,08,06,09,24,17.10
2015,08,06,09,25,17.10
2015,08,06,09,26,17.20
2015,08,06,09,27,17.20
2015,08,06,09,28,17.20
2015,08,06,09,29,17.20
2015,08,06,09,30,17.20
2015,08,06,09,31,17.20
2015,08,06,09,32,17.20
2015,08,06,09,33,17.20
2015,08,06,09,34,17.30
2015,08,06,09,35,17.30
2015,08,06,09,36,17.30
2015,08,06,09,37,17.30
2015,08,06,09,38,17.30
2015,08,06,09,39,17.30
2015,08,06,09,40,17.30
2015,08,06,09,41,17.30
2015,08,06,09,42,17.40
2015,08,06,09,43,17.40
2015,08,06,09,44,17.40
2015,08,06,09,45,17.50
2015,08,06,09,46,17.60
2015,08,06,09,47,17.70
2015,08,06,09,48,17.80
2015,08,06,09,49,17.90
2015,08,06,09,50,18.00
2015,08,06,09,51,18.10
2015,08,06,09,52,18.10
2015,08,06,09,53,18.10
2015,08,06,09,54,18.10
2015,08,06,09,55,18.00
2015,08,06,09,56,18.00
2015,08,06,09,57,18.00
2015,08,06,09,58,18.10
2015,08,06,09,59,18.10
2015,08,06,10,00,18.10
2015,08,06,10,01,18.10
2015,08,06,10,02,18.20
2015,08,06,10,03,18.20
2015,08,06,10,04,18.20
2015,08,06,10,05,18.20
2015,08,06,10,06,18.20
2015,08,06,10,07,18.30
2015,08,06,10,08,18.30
2015,08,06,10,09,18.30
2015,08,06,10,10,18.20
2015,08,06,10,11,18.20
2015,08,06,10,12,18.20
2015,08,06,10,13,18.20
2015,08,06,10,14,18.30
2015,08,06,10,15,18.40
2015,08,06,10,16,18.50
2015,08,06,10,17,18.50
2015,08,06,10,18,18.50
2015,08,06,10,19,18.60
2015,08,06,10,20,18.70
2015,08,06,10,21,18.70
2015,08,06,10,22,18.70
2015,08,06,10,23,18.60
2015,08,06,10,24,18.50
2015,08,06,10,25,18.40
2015,08,06,10,26,18.30
2015,08,06,10,27,18.30
2015,08,06,10,28,18.30
2015,08,06,10,29,18.30
2015,08,06,10,30,18.30
2015,08,06,10,31,18.30
2015,08,06,10,32,18.30
2015,08,06,10,33,18.20
2015,08,06,10,34,18.20
2015,08,06,10,35,18.20
2015,08,06,10,36,18.30
2015,08,06,10,37,18.40
2015,08,06,10,38,18.40
2015,08,06,10,39,18.50
2015,08,06,10,40,18.50
2015,08,06,10,41,18.50
2015,08,06,10,42,18.50
2015,08,06,10,43,18.50
2015,08,06,10,44,18.50
2015,08,06,10,45,18.50
2015,08,06,10,46,18.50
2015,08,06,10,47,18.50
2015,08,06,10,48,18.60
2015,08,06,10,49,18.70
2015,08,06,10,50,18.70
2015,08,06,10,51,18.80
2015,08,06,10,52,18.80
2015,08,06,10,53,18.70
2015,08,06,10,54,18.60
2015,08,06,10,55,18.50
2015,08,06,10,56,18.50
2015,08,06,10,57,18.50
2015,08,06,10,58,18.60
2015,08,06,10,59,18.60
2015,08,06,11,00,18.60
2015,08,06,11,01,18.60
2015,08,06,11,02,18.60
2015,08,06,11,03,18.60
2015,08,06,11,04,18.60
2015,08,06,11,05,18.60
2015,08,06,11,06,18.70
2015,08,06,11,07,18.70
2015,08,06,11,08,18.70
2015,08,06,11,09,18.80
2015,08,06,11,10,18.90
2015,08,06,11,11,19.00
2015,08,06,11,12,19.00
2015,08,06,11,13,19.00
2015,08,06,11,14,19.00
2015,08,06,11,15,19.00
2015,08,06,11,16,18.90
2015,08,06,11,17,18.90
2015,08,06,11,18,19.00
2015,08,06,11,19,19.10
2015,08,06,11,20,19.10
2015,08,06,11,21,19.20
2015,08,06,11,22,19.20
2015,08,06,11,23,19.10
2015,08,06,11,24,19.10
2015,08,06,11,25,19.00
2015,08,06,11,26,19.00
2015,08,06,11,27,19.00
2015,08,06,11,28,19.00
2015,08,06,11,29,18.90
2015,08,06,11,30,18.80
2015,08,06,11,31,18.80
2015,08,06,11,32,18.80
2015,08,06,11,33,18.80
2015,08,06,11,34,18.90
2015,08,06,11,35,18.90
2015,08,06,11,36,19.00
2015,08,06,11,37,19.10
2015,08,06,11,38,19.10
2015,08,06,11,39,19.20
2015,08,06,11,40,19.30
2015,08,06,11,41,19.30
2015,08,06,11,42,19.30
2015,08,06,11,43,19.40
2015,08,06,11,44,19.40
2015,08,06,11,45,19.40
2015,08,06,11,46,19.40
2015,08,06,11,47,19.50
2015,08,06,11,48,19.50
2015,08,06,11,49,19.50
2015,08,06,11,50,19.60
2015,08,06,11,51,19.70
2015,08,06,11,52,19.80
2015,08,06,11,53,19.80
2015,08,06,11,54,19.80
2015,08,06,11,55,19.80
2015,08,06,11,56,19.70
2015,08,06,11,57,19.70
2015,08,06,11,58,19.70
2015,08,06,11,59,19.70
2015,08,06,12,00,19.70
2015,08,06,12,01,19.60
2015,08,06,12,02,19.60
2015,08,06,12,03,19.60
2015,08,06,12,04,19.70
2015,08,06,12,05,19.80
2015,08,06,12,06,19.80
2015,08,06,12,07,19.80
2015,08,06,12,08,19.80
2015,08,06,12,09,19.80
2015,08,06,12,10,19.90
2015,08,06,12,11,20.00
2015,08,06,12,12,20.10
2015,08,06,12,13,20.20
2015,08,06,12,14,20.20
2015,08,06,12,15,20.20
2015,08,06,12,16,20.20
2015,08,06,12,17,20.20
2015,08,06,12,18,20.30
2015,08,06,12,19,20.40
2015,08,06,12,20,20.50
2015,08,06,12,21,20.50
2015,08,06,12,22,20.60
2015,08,06,12,23,20.60
2015,08,06,12,24,20.50
2015,08,06,12,25,20.40
2015,08,06,12,26,20.40
2015,08,06,12,27,20.40
2015,08,06,12,28,20.40
2015,08,06,12,29,20.50
2015,08,06,12,30,20.50
2015,08,06,12,31,20.50
2015,08,06,12,32,20.40
2015,08,06,12,33,20.50
2015,08,06,12,34,20.50
2015,08,06,12,35,20.50
2015,08,06,12,36,20.50
2015,08,06,12,37,20.50
2015,08,06,12,38,20.40
2015,08,06,12,39,20.40
2015,08,06,12,40,20.40
2015,08,06,12,41,20.40
2015,08,06,12,42,20.40
2015,08,06,12,43,20.40
2015,08,06,12,44,20.30
2015,08,06,12,45,20.30
2015,08,06,12,46,20.20
2015,08,06,12,47,20.20
2015,08,06,12,48,20.30
2015,08,06,12,49,20.30
2015,08,06,12,50,20.30
2015,08,06,12,51,20.30
2015,08,06,12,52,20.40
2015,08,06,12,53,20.40
2015,08,06,12,54,20.60
2015,08,06,12,55,20.70
2015,08,06,12,56,20.90
2015,08,06,12,57,21.00
2015,08,06,12,58,21.10
2015,08,06,12,59,21.10
2015,08,06,13,00,21.20
2015,08,06,13,01,21.20
2015,08,06,13,02,21.30
2015,08,06,13,03,21.30
2015,08,06,13,04,21.30
2015,08,06,13,05,21.30
2015,08,06,13,06,21.20
2015,08,06,13,07,21.20
2015,08,06,13,08,21.10
2015,08,06,13,09,21.00
2015,08,06,13,10,20.90
2015,08,06,13,11,20.80
2015,08,06,13,12,20.80
2015,08,06,13,13,20.70
2015,08,06,13,14,20.80
2015,08,06,13,15,20.80
2015,08,06,13,16,20.90
2015,08,06,13,17,20.90
2015,08,06,13,18,20.90
2015,08,06,13,19,20.80
2015,08,06,13,20,20.80
2015,08,06,13,21,20.80
2015,08,06,13,22,20.80
2015,08,06,13,23,20.90
2015,08,06,13,24,21.00
2015,08,06,13,25,21.10
2015,08,06,13,26,21.20
2015,08,06,13,27,21.20
2015,08,06,13,28,21.20
2015,08,06,13,29,21.20
2015,08,06,13,30,21.20
2015,08,06,13,31,21.20
2015,08,06,13,32,21.30
2015,08,06,13,33,21.30
2015,08,06,13,34,21.20
2015,08,06,13,35,21.10
2015,08,06,13,36,21.10
2015,08,06,13,37,21.10
2015,08,06,13,38,21.00
2015,08,06,13,39,21.00
2015,08,06,13,40,20.90
2015,08,06,13,41,20.90
2015,08,06,13,42,20.90
2015,08,06,13,43,20.90
2015,08,06,13,44,20.90
2015,08,06,13,45,20.90
2015,08,06,13,46,21.00
2015,08,06,13,47,21.10
2015,08,06,13,48,21.20
2015,08,06,13,49,21.30
2015,08,06,13,50,21.40
2015,08,06,13,51,21.40
2015,08,06,13,52,21.40
2015,08,06,13,53,21.30
2015,08,06,13,54,21.30
2015,08,06,13,55,21.20
2015,08,06,13,56,21.10
2015,08,06,13,57,21.10
2015,08,06,13,58,21.00
2015,08,06,13,59,20.90
2015,08,06,14,00,20.90
2015,08,06,14,01,21.00
2015,08,06,14,02,21.00
2015,08,06,14,03,21.10
2015,08,06,14,04,21.10
2015,08,06,14,05,21.30
2015,08,06,14,06,21.40
2015,08,06,14,07,21.50
2015,08,06,14,08,21.60
2015,08,06,14,09,21.60
2015,08,06,14,10,21.50
2015,08,06,14,11,21.50
2015,08,06,14,12,21.40
2015,08,06,14,13,21.40
2015,08,06,14,14,21.50
2015,08,06,14,15,21.60
2015,08,06,14,16,21.60
2015,08,06,14,17,21.60
2015,08,06,14,18,21.70
2015,08,06,14,19,21.60
2015,08,06,14,20,21.60
2015,08,06,14,21,21.60
2015,08,06,14,22,21.60
2015,08,06,14,23,21.60
2015,08,06,14,24,21.60
2015,08,06,14,25,21.60
2015,08,06,14,26,21.60
2015,08,06,14,27,21.60
2015,08,06,14,28,21.70
2015,08,06,14,29,21.70
2015,08,06,14,30,21.60
2015,08,06,14,31,21.60
2015,08,06,14,32,21.50
2015,08,06,14,33,21.50
2015,08,06,14,34,21.50
2015,08,06,14,35,21.40
2015,08,06,14,36,21.50
2015,08,06,14,37,21.50
2015,08,06,14,38,21.60
2015,08,06,14,39,21.60
2015,08,06,14,40,21.60
2015,08,06,14,41,21.60
2015,08,06,14,42,21.60
2015,08,06,14,43,21.60
2015,08,06,14,44,21.60
2015,08,06,14,45,21.60
2015,08,06,14,46,21.70
2015,08,06,14,47,21.70
2015,08,06,14,48,21.80
2015,08,06,14,49,21.80
2015,08,06,14,50,21.80
2015,08,06,14,51,21.70
2015,08,06,14,52,21.70
2015,08,06,14,53,21.70
2015,08,06,14,54,21.70
2015,08,06,14,55,21.80
2015,08,06,14,56,21.80
2015,08,06,14,57,21.80
2015,08,06,14,58,21.70
2015,08,06,14,59,21.70
2015,08,06,15,00,21.60
2015,08,06,15,01,21.50
2015,08,06,15,02,21.40
2015,08,06,15,03,21.40
2015,08,06,15,04,21.40
2015,08,06,15,05,21.40
2015,08,06,15,06,21.40
2015,08,06,15,07,21.40
2015,08,06,15,08,21.50
2015,08,06,15,09,21.60
2015,08,06,15,10,21.60
2015,08,06,15,11,21.70
2015,08,06,15,12,21.70
2015,08,06,15,13,21.70
2015,08,06,15,14,21.80
2015,08,06,15,15,21.80
2015,08,06,15,16,21.80
2015,08,06,15,17,21.70
2015,08,06,15,18,21.60
2015,08,06,15,19,21.50
2015,08,06,15,20,21.40
2015,08,06,15,21,21.30
2015,08,06,15,22,21.20
2015,08,06,15,23,21.20
2015,08,06,15,24,21.10
2015,08,06,15,25,21.00
2015,08,06,15,26,20.90
2015,08,06,15,27,20.90
2015,08,06,15,28,20.80
2015,08,06,15,29,20.80
2015,08,06,15,30,20.70
2015,08,06,15,31,20.70
2015,08,06,15,32,20.70
2015,08,06,15,33,20.70
2015,08,06,15,34,20.80
2015,08,06,15,35,20.80
2015,08,06,15,36,20.80
2015,08,06,15,37,20.90
2015,08,06,15,38,20.90
2015,08,06,15,39,20.90
2015,08,06,15,40,20.90
2015,08,06,15,41,20.90
2015,08,06,15,42,20.90
2015,08,06,15,43,20.80
2015,08,06,15,44,20.80
2015,08,06,15,45,20.80
2015,08,06,15,46,20.80
2015,08,06,15,47,20.80
2015,08,06,15,48,20.80
2015,08,06,15,49,20.80
2015,08,06,15,50,20.80
2015,08,06,15,51,20.80
2015,08,06,15,52,20.90
2015,08,06,15,53,20.90
2015,08,06,15,54,21.00
2015,08,06,15,55,21.00
2015,08,06,15,56,21.00
2015,08,06,15,57,21.00
2015,08,06,15,58,21.10
2015,08,06,15,59,21.00
2015,08,06,16,00,21.00
2015,08,06,16,01,20.90
2015,08,06,16,02,20.90
2015,08,06,16,03,20.90
2015,08,06,16,04,20.90
2015,08,06,16,05,20.90
2015,08,06,16,06,20.90
2015,08,06,16,07,20.90
2015,08,06,16,08,20.90
2015,08,06,16,09,20.80
2015,08,06,16,10,20.80
2015,08,06,16,11,20.80
2015,08,06,16,12,20.80
2015,08,06,16,13,20.90
2015,08,06,16,14,20.90
2015,08,06,16,15,20.90
2015,08,06,16,16,21.00
2015,08,06,16,17,21.00
2015,08,06,16,18,21.00
2015,08,06,16,19,21.00
2015,08,06,16,20,21.00
2015,08,06,16,21,20.90
2015,08,06,16,22,20.90
2015,08,06,16,23,20.90
2015,08,06,16,24,20.90
2015,08,06,16,25,20.90
2015,08,06,16,26,20.90
2015,08,06,16,27,20.90
2015,08,06,16,28,20.90
2015,08,06,16,29,20.80
2015,08,06,16,30,20.80
2015,08,06,16,31,20.80
2015,08,06,16,32,20.80
2015,08,06,16,33,20.80
2015,08,06,16,34,20.80
2015,08,06,16,35,20.70
2015,08,06,16,36,20.70
2015,08,06,16,37,20.70
2015,08,06,16,38,20.60
2015,08,06,16,39,20.60
2015,08,06,16,40,20.60
2015,08,06,16,41,20.60
2015,08,06,16,42,20.60
2015,08,06,16,43,20.50
2015,08,06,16,44,20.50
2015,08,06,16,45,20.40
2015,08,06,16,46,20.40
2015,08,06,16,47,20.30
2015,08,06,16,48,20.30
2015,08,06,16,49,20.30
2015,08,06,16,50,20.30
2015,08,06,16,51,20.30
2015,08,06,16,52,20.30
2015,08,06,16,53,20.30
2015,08,06,16,54,20.30
2015,08,06,16,55,20.30
2015,08,06,16,56,20.30
2015,08,06,16,57,20.30
2015,08,06,16,58,20.30
2015,08,06,16,59,20.30
2015,08,06,17,00,20.30
2015,08,06,17,01,20.30
2015,08,06,17,02,20.30
2015,08,06,17,03,20.20
2015,08,06,17,04,20.20
2015,08,06,17,05,20.20
2015,08,06,17,06,20.20
2015,08,06,17,07,20.30
2015,08,06,17,08,20.30
2015,08,06,17,09,20.30
2015,08,06,17,10,20.30
2015,08,06,17,11,20.30
2015,08,06,17,12,20.30
2015,08,06,17,13,20.20
2015,08,06,17,14,20.20
2015,08,06,17,15,20.20
2015,08,06,17,16,20.10
2015,08,06,17,17,20.10
2015,08,06,17,18,20.10
2015,08,06,17,19,20.10